User: anonymous   Login
Location: Cheching
(60.0667°N, 164.2167°W)
Time: 19:03:34
(UTC+00:00)
Language:

LilacSat-2 - Orbit

View from above orbital plane
View from above orbital plane
View from above satellite
View from above satellite

Ground track
Ground track

The orbit data is extracted from the following two-line orbital elements,

1 40908U 15049K   21333.18370637  .00001111  00000-0  63381-4 0  9996
2 40908  97.5116 331.0273 0015510 356.5909  69.6778 15.14733037342163
Epoch (UTC): 29 November 2021 04:24:32
Eccentricity: 0.0015510
inclination: 97.5116°
perigee height: 511 km
apogee height: 532 km
right ascension of ascending node: 331.0273°
argument of perigee: 356.5909°
revolutions per day: 15.14733037
mean anomaly at epoch: 69.6778°
orbit number at epoch: 34216

The dashed part of the orbit path shows where the satellite is in the earth's shadow,  

DLR